[Date Prev][Date Next][Thread Prev][Thread Next] - [Date Index][Thread Index][Author Index]
2 Line ISS Keps 10-17
- Subject: [sarex] 2 Line ISS Keps 10-17
- From: "Dave Larsen PhD" <doc@xxxxxxxxxxx>
- Date: Thu, 17 Oct 2002 01:42:11 -0700
ISS
1 25544U 98067A 02290.20000000 .00112573 00000-0 13929-2 0 2702
2 25544 51.6355 160.1490 0019258 12.0104 126.0092 15.59019150223060
----
Via the sarex mailing list at AMSAT.ORG courtesy of AMSAT-NA.
To unsubscribe, send "unsubscribe sarex" to Majordomo@amsat.org
AMSAT Home